Location: Crescent
(42.8242°N, 73.7329°W)
Time: 21:09:59
(UTC+00:00)

SR - Pass Details

Date: 24 February 2026
Orbit: 573 x 848 km, 66.7° (Epoch: 6 March)

Event Time Altitude Azimuth Distance (km) Brightness Sun altitude
Rises 09:03:04 0° 248° (WSW) 2,787 - -29.1°
Reaches altitude 10° 09:05:42 10° 265° (W) 1,913 - -28.6°
Maximum altitude 09:08:58 21° 315° (NW) 1,375 - -28.1°
Exits shadow 09:11:34 13° 357° (N) 1,773 ? -27.6°
Drops below altitude 10° 09:12:24 10° 5° (N) 2,008 ? -27.5°
Sets 09:15:15 0° 22° (NNE) 2,969 ? -26.9°
